This is the latest recevied weather packets stored in our database for station/object JF2ZGN-13. If no packets are shown the sender has not sent any weather packets the latest 10 day(s).
| Time | Temp. | Humidity | Pressure | Rain* | Wind** | Luminosity | Snow |
|---|---|---|---|---|---|---|---|
| 1777886746 | 10.56° C | 48% | 893.3 hPa | 20.07 mm | - | - | - |
| 1777886145 | 10.56° C | 53% | 892.9 hPa | 20.07 mm | - | - | - |
| 1777885545 | 10.56° C | 57% | 892.7 hPa | 20.07 mm | - | - | - |
| 1777884944 | 10.56° C | 62% | 893.1 hPa | 20.07 mm | - | - | - |
| 1777884345 | 11.11° C | 56% | 892.6 hPa | 20.07 mm | - | - | - |
| 1777883744 | 11.11° C | 55% | 892.9 hPa | 20.07 mm | - | - | - |
| 1777883143 | 11.11° C | 59% | 892.7 hPa | 20.07 mm | - | - | - |
| 1777882543 | 11.11° C | 58% | 893.1 hPa | 20.07 mm | - | - | - |
| 1777881943 | 11.11° C | 58% | 892.9 hPa | 20.07 mm | - | - | - |
| 1777881342 | 11.67° C | 57% | 892.9 hPa | 20.07 mm | - | - | - |
| 1777880741 | 11.67° C | 55% | 892.8 hPa | 20.07 mm | - | - | - |
| 1777880141 | 12.22° C | 53% | 892.8 hPa | 20.07 mm | - | - | - |
| 1777879540 | 12.22° C | 51% | 892.6 hPa | 20.07 mm | - | - | - |
| 1777878940 | 12.78° C | 34% | 892.4 hPa | 20.07 mm | - | - | - |
| 1777878339 | 13.33° C | 34% | 892.2 hPa | 20.07 mm | - | - | - |
| 1777877739 | 13.33° C | 45% | 892.2 hPa | 20.07 mm | - | - | - |
| 1777877138 | 13.33° C | 48% | 892.4 hPa | 20.07 mm | - | - | - |
| 1777876538 | 13.33° C | 54% | 892.5 hPa | 20.07 mm | - | - | - |
| 1777875937 | 13.33° C | 58% | 892.5 hPa | 20.07 mm | - | - | - |
| 1777875337 | 13.33° C | 59% | 892.3 hPa | 20.07 mm | - | - | - |
| 1777874736 | 13.33° C | 61% | 892.4 hPa | 20.07 mm | - | - | - |
| 1777874136 | 13.33° C | 61% | 892.3 hPa | 20.07 mm | - | - | - |
| 1777873535 | 13.89° C | 64% | 892.5 hPa | 20.07 mm | - | - | - |
| 1777872935 | 13.33° C | 65% | 892.6 hPa | 20.07 mm | - | - | - |
| 1777872334 | 13.89° C | 67% | 892.4 hPa | 20.07 mm | - | - | - |
* Rain since midnight (hover to see other rain measurements)
** Current wind speed in m/s (hover to see current wind gust speed)